Regional Weather Roundup
Issued by NWS

Home | Current Version | Previous Version | Text Only | Print | Product List | Glossary On
Versions: 1 2 3 4 5 6 7 8 9 10 11 12 13 14 15 16 17 18 19 20 21 22 23 24 25 26 27 28 29 30 31 32 33 34 35 36 37 38 39 40 41 42 43 44 45 46 47 48 49 50
000
ASUS46 KLOX 022012
RWRCA

SOUTHERN CALIFORNIA WEATHER ROUNDUP
NATIONAL WEATHER SERVICE OXNARD CALIFORNIA
1200 PM PST MON MAR 02 2015

NOTE: "FAIR" INDICATES FEW OR NO CLOUDS BELOW 12,000 FEET WITH NO
SIGNIFICANT WEATHER AND/OR OBSTRUCTIONS TO VISIBILITY.

  -  STATIONS PRECEEDED BY AN ASTERISK (*) ARE NOT NWS OR FAA
     STATIONS AND ARE NOT SUBJECT TO NWS AND FAA QUALITY CONTROL.

CAZ041-042-087-022100-
LA AND ORANGE COUNTY COASTAL AREAS


CITY           SKY/WX    TMP DP  RH WIND       PRES   REMARKS
L.A. DOWNTOWN  MOSUNNY   58  44  60 CALM      29.92F
L.A. AIRPORT   PTSUNNY   56  44  64 S6        29.92F
LONG BEACH     PTSUNNY   55  46  71 S9        29.93S

CITY           SKY/WX    TMP DP  RH WIND       PRES   REMARKS
AVALON           N/A     52 N/A N/A MISG        N/A
FULLERTON      PTSUNNY   54  45  71 MISG      29.93R
*GETTY CENTER    N/A    N/A N/A N/A E3          N/A
HAWTHORNE      MOSUNNY   60  42  51 MISG      29.93F
*LOS ALAMITOS  PTSUNNY   53  47  81 SE8       29.93F
*REDONDO BEACH   N/A     62  49  61 SE3       29.93F
SANTA ANA      LGT RAIN  54  46  74 VRB3      29.94F
STA MONICA APT MOSUNNY   59  40  49 VRB3      29.92F
TORRANCE       PTSUNNY   57  46  67 VRB7      29.94S
*UCLA            N/A     59  41  51 SE6       29.88F

$$

CAZ547-548-048-022100-
LA COUNTY VALLEYS AND INLAND EMPIRE


CITY           SKY/WX    TMP DP  RH WIND       PRES   REMARKS
BURBANK        SUNNY     56  41  57 CALM      29.90F
VAN NUYS       MOSUNNY   59  44  57 S5        29.90F

CITY           SKY/WX    TMP DP  RH WIND       PRES   REMARKS
CORONA AIRPORT LGT RAIN  48  46  93 CALM      29.94S FOG
CHINO          LGT RAIN  50  43  77 SW9       29.95R
*CLAREMONT       N/A     49  44  81 S6          N/A
MARCH AFB      LGT RAIN  48  42  80 W9        29.92R
*NORTHRIDGE      N/A     55  39  54 SE3         N/A
ONTARIO        RAIN      50  42  74 W10       29.92R
*PASADENA        N/A     61  50  67 E1          N/A
RIVERSIDE      HVY RAIN  48  42  80 SW17G25   29.94R
SAN BERNARDINO RAIN      50  39  66 S5        29.90F
*SAN GABRIEL     N/A     57  45  65 CALM      29.90S
*WHITEMAN AP   NOT AVBL

$$

CAZ054-055-022100-
LA AND SAN BERNARDINO COUNTY MOUNTAINS


CITY           SKY/WX    TMP DP  RH WIND       PRES   REMARKS
*ACTON           N/A     50  40  69 SW7         N/A
*BIG BEAR AIRP PTCLDY    32  23  69 SW13      29.84S WCI  22
*BIG PINES       N/A     33  28  83 SW2         N/A
*CHILAO          N/A     35  33  94 S9          N/A  WCI  28
MT WILSON NWS    N/A     34  36 100 MISG        N/A
SANDBERG       PTSUNNY   45  37  73 S15       29.84F
*WARM SPRINGS    N/A     42  41  97 CALM        N/A

$$

CAZ028-029-059-060-099-022100-
ANTELOPE VALLEY AND SURROUNDING AREAS


CITY           SKY/WX    TMP DP  RH WIND       PRES   REMARKS
LANCASTER      MOSUNNY   52  33  48 SW17      29.86F
PALMDALE       PTSUNNY   51  35  54 SW16G23   29.87S

CITY           SKY/WX    TMP DP  RH WIND       PRES   REMARKS
29 PALMS       MOSUNNY   56  38  50 S20       29.91F
BARSTOW/DAGGET CLOUDY    57  29  34 W17G28    29.84F
BISHOP         MOSUNNY   49  23  36 VRB5      29.76F
CHINA LAKE     PTSUNNY   55  36  48 SW13      29.79F
EDWARDS AFB    MOSUNNY   55  32  41 SW18G25   29.82F
MOJAVE         CLOUDY    46  36  66 W5        29.84S
NEEDLES        MOSUNNY   60  43  53 SW14      29.86F
VICTORVILLE    CLOUDY    52  28  40 S6        29.84F

$$

CAZ039-040-022100-
VENTURA AND SANTA BARBARA COUNTY COAST


CITY           SKY/WX    TMP DP  RH WIND       PRES   REMARKS
CAMARILLO      PTSUNNY   61  46  57 S14       29.91F
OXNARD AIRPORT MOSUNNY   59  44  57 SW8       29.92S
*POINT MUGU    MOSUNNY   62  49  62 S13       29.93S
SBA APT/GOLETA CLOUDY    54  46  74 N10       29.92S
*SANTA BARBARA   N/A     56  44  64 CALM      30.00S
*VENTURA         N/A     63  44  50 SW3       29.96S

$$

CAZ044-045-022100-
VENTURA COUNTY VALLEYS


CITY           SKY/WX    TMP DP  RH WIND       PRES   REMARKS
*SIMI VALLEY     N/A     57  44  61 CALM      29.89F
*OJAI            N/A     49  44  84 W1        29.89R
*FILLMORE        N/A     54  50  85 CALM      29.82S

$$

CAZ053-022100-
VENTURA COUNTY MOUNTAINS


CITY           SKY/WX    TMP DP  RH WIND       PRES   REMARKS
*LOCKWOOD VLY    N/A     43  32  65 MISG        N/A
*ROSE VALLEY     N/A     45  39  81 MISG        N/A

$$

CAZ034-035-036-022100-
CENTRAL COAST AND SANTA YNEZ VALLEY


CITY           SKY/WX    TMP DP  RH WIND       PRES   REMARKS
SAN LUIS OBISP PTSUNNY   55  47  74 CALM      29.89F
SANTA MARIA    LGT RAIN  54  45  71 SE5       29.91S

CITY           SKY/WX    TMP DP  RH WIND       PRES   REMARKS
*CAL POLY SLO    N/A     54  48  82 S3          N/A
*LOMPOC        CLOUDY    54  45  71 W6        29.92S
*PISMO BEACH     N/A     54  49  82 CALM      29.90F
*SANTA YNEZ    FAIR      59  43  55 W14       29.90S

$$

CAZ037-038-051-022100-
SAN LUIS OBISPO COUNTY INTERIOR AND CUYAMA VALLEY


CITY           SKY/WX    TMP DP  RH WIND       PRES   REMARKS
*CUYAMA          N/A     52  40  62 CALM      29.87F
PASO ROBLES    PTSUNNY   60  43  53 SW13      29.86F

$$

CAZ032-033-061-022100-
SOUTHERN DESERTS


CITY           SKY/WX    TMP DP  RH WIND       PRES   REMARKS
BLYTHE         MOSUNNY   62  46  55 S14G22    29.90F
IMPERIAL       PTSUNNY   62  43  49 MISG      29.91S
PALM SPRINGS   PTSUNNY   59  46  62 VRB5      29.91F
THERMAL        CLOUDY    60  51  72 SE8       29.89F

$$

ELSEWHERE ACROSS THE WESTERN UNITED STATES AND MEXICO


CITY           SKY/WX    TMP DP  RH WIND       PRES   REMARKS
DENVER, CO     MOSUNNY   29  21  72 N6        29.77F HAZE    WCI  23
GRAND CANYON,  HVY SNOW  31  29  92 SW13      29.82F VSB 1/4 WCI  21
HONOLULU, HI   MOSUNNY   81  64  57 N8        30.05R
KAHULUI, MAUI  MOSUNNY   79  68  69 NE17      30.05S
LAKE TAHOE, CA PTSUNNY   35  23  61 VRB3      29.76S
LAS VEGAS, NV  PTSUNNY   56  36  47 SW22G30   29.75F
MAMMOTH LAKES, CLOUDY    32  23  69 CALM      29.75S
MEXICO CITY, M SUNNY     79  27  14 VRB3      30.29F
PHOENIX, AZ    LGT RAIN  53  48  83 W12       29.93S
PORTLAND, OR   MOSUNNY   52  41  66 NW10      29.99R
RENO, NV       MOSUNNY   46  25  43 CALM      29.77F
SALT LAKE CITY CLOUDY    41  34  76 SW9       29.68F
SAN DIEGO, CA  MOSUNNY   60  46  59 S15       29.97R
SAN FRANCISCO, PTSUNNY   57  45  64 W10       29.82S
SAN JOSE, CA   LGT RAIN  57  43  59 SW3       29.83S
SEATTLE, WA    PTSUNNY   47  36  65 N13       30.04S
TIJUANA, MEX   PTSUNNY   55  45  67 SE9       29.99S

$$

STATION/POSITION TIME  TEMP    WIND        PRES    VSBY  WAVE
                       AIR SEA DIR/SP/G                  HT/PER
                 (UTC) (F)     (DEG/KT/KT) (MB)    (MI)  (FT/S)
POINT ARGUELLO B NOT AVBL
WEST SANTA BARBA 2000   54 59  300/ 14/ 16 1012.6S         5/10
POINT CONCEPTION NOT AVBL
EAST SANTA BARBA NOT AVBL
SANTA MONICA BAY 2000   56 62  260/  6/  8 1013.7R         2/12


USA.gov is the U.S. government's official web portal to all federal, state and local government web resources and services.